Regional Weather Roundup
Issued by NWS Dallas/Fort Worth, TX

Current Version | Previous Version | Text Only | Print | Product List | Glossary On
Versions: 1 2 3 4 5 6 7 8 9 10 11 12 13 14 15 16 17 18 19 20 21 22 23 24 25 26 27 28 29 30 31 32 33 34 35 36 37 38 39 40 41 42 43 44 45 46 47 48 49 50
883
ASUS44 KFWD 200915
RWRFWD
NORTH TEXAS HOURLY WEATHER ROUNDUP
NATIONAL WEATHER SERVICE FORT WORTH TX
400 AM CDT FRI APR 20 2018

NOTE: "FAIR" INDICATES FEW OR NO CLOUDS BELOW 12,000 FEET WITH NO
SIGNIFICANT WEATHER AND/OR OBSTRUCTIONS TO VISIBILITY.

TXZ118-119-201000-
DALLAS/FORT WORTH METROPLEX

CITY           SKY/WX    TMP DP  RH WIND       PRES   REMARKS
DFW AIRPORT    MOCLDY    50  40  68 E8        30.24S
DALLAS LOVE    MOCLDY    54  40  59 E12       30.25S
FTW MEACHAM    FAIR      53  39  59 NE6       30.24S
DAL-EXECUTIVE  FAIR      51  39  63 E7        30.25S
FTW-ALLIANCE   FAIR      46  40  79 CALM      30.25S
FTW-NAS-JRB    FAIR      54  37  52 CALM      30.25S
FTW-SPINKS     FAIR      47  38  72 CALM      30.27R
ARLINGTON      FAIR      51  41  68 NE6       30.24F
GRAND PRAIRIE  FAIR      53  40  61 NE7       30.26F
ADDISON        FAIR      52  39  61 E7        30.27S
MESQUITE       FAIR      48  39  70 E5        30.28R
LANCASTER      FAIR      48  37  63 E5        30.27S
$$

TXZ091>094-102>105-117-120-121-131>134-201000-
NORTH CENTRAL TEXAS

CITY           SKY/WX    TMP DP  RH WIND       PRES   REMARKS
SHRMAN/DENISON FAIR      47  39  72 E8        30.30R
GAINESVILLE    FAIR      47  37  66 E3        30.30S
BOWIE          FAIR      44  37  76 CALM      30.26F
BRIDGEPORT     FAIR      40  35  83 CALM      30.28S
DECATUR        FAIR      46  37  70 CALM      30.26R
DENTON         FAIR      49  39  68 E6        30.26S
MCKINNEY       FAIR      49  40  71 E5        30.28R
BONHAM         FAIR      45  38  77 E7        30.31R
GREENVILLE     FAIR      50  41  71 E5        30.29S
ROCKWALL       FAIR      50  40  68 MISG      30.29R
TERRELL        FAIR      50  40  68 E7        30.29R
WAXAHACHIE     FAIR      49  40  70 NE7       30.25F
CLEBURNE       FAIR      50  37  62 NE6       30.26R
GRANBURY       FAIR      51  39  63 CALM      30.26R
$$

TXZ083>090-098>101-113>116-127>130-139>142-154-155-201000-
WESTERN NORTH TEXAS

CITY           SKY/WX    TMP DP  RH WIND       PRES   REMARKS
WICHITA FALLS  FAIR      44  34  67 E8        30.26F WCI  39
WF-KICKAPOO    FAIR      44  35  68 E5        30.28F
VERNON         FAIR      44  32  63 E8        30.25F WCI  40
ABILENE        FAIR      52  34  50 SE13      30.19F
ABILENE-DYESS  CLEAR     54  18  24 SE10      30.19S
GRAHAM           N/A     45  36  70 CALM      30.23S
BRECKENRIDGE   FAIR      51  35  52 E7        30.23S
CISCO          FAIR      46  36  66 E6        30.22F
EASTLAND       FAIR      47  35  62 E6        30.22F
MINERAL WELLS  FAIR      46  37  71 CALM      30.23S
STEPHENVILLE   FAIR      50  36  59 CALM      30.26F
COMANCHE       FAIR      47  37  66 CALM      30.22F
BROWNWOOD      FAIR      45  34  65 CALM      30.22S
COLEMAN        FAIR      49  33  53 CALM      30.21S
BRADY          FAIR      50  36  57 E6        30.20S
$$

TXZ143>147-156>162-174-175-201000-
CENTRAL TEXAS

CITY           SKY/WX    TMP DP  RH WIND       PRES   REMARKS
WACO           FAIR      51  40  65 E5        30.23R
WACO-MCGREGOR  FAIR      55  39  54 E8        30.22S
HILLSBORO      FAIR      52  41  64 E12       30.22F
CORSICANA      FAIR      51  43  74 E8        30.27R
MEXIA          FAIR      49  40  69 E7        30.23F
HEARNE         FAIR      55  42  62 NE5       30.23S
CAMERON        FAIR      54  43  67 CALM      30.22S
TEMPLE         FAIR      55  40  56 E10       30.21F
KILLEEN        MOCLDY    55  37  50 E3        30.21F
KILLEEN-SKYLRK FAIR      54  41  61 E5        30.21F
FORT HOOD      CLOUDY    55  40  57 E5        30.17F
GATESVILLE     FAIR      50  41  71 CALM      30.23F
HAMILTON       FAIR      51  38  61 E3        30.24S
LAMPASAS       FAIR      51  39  65 NE3       30.20F
$$

TXZ095>097-106>112-122>126-135>138-148>153-164>167-201000-
EAST TEXAS

CITY           SKY/WX    TMP DP  RH WIND       PRES   REMARKS
PARIS          FAIR      47  39  74 E9        30.33R
SULPHUR SPRNGS FAIR      46  40  82 E3        30.33R
MOUNT PLEASANT FAIR      47  38  71 E5        30.33R
GILMER         FAIR      46  38  73 E3        30.31R
MINEOLA        FAIR      46  39  76 SE3       30.30R
TYLER          FAIR      51  39  63 E9        30.29R
LONGVIEW       FAIR      47  41  80 CALM      30.30R
MARSHALL       FAIR      46  37  68 CALM      30.32R
ATHENS         FAIR      50  41  71 E3        30.28R
PALESTINE      FAIR      51  42  69 NE9       30.28R
JACKSONVILLE   FAIR      48  42  80 E7        30.29S
HENDERSON      FAIR      48  38  69 E3        30.30R
CENTER         FAIR      46  38  72 CALM      30.30R
NACOGDOCHES      N/A     49  40  71 E3        30.29R
LUFKIN         FAIR      49  40  71 NE5       30.27R
$$

SUPPLEMENTAL OBSERVATIONS (NWS FORT WORTH AREA)

CITY           SKY/WX    TMP DP  RH WIND       PRES   REMARKS
DENISON DAM      N/A     48  36  61 E6          N/A
CADDO GRASSLND   N/A     46  37  71 SE3         N/A
LBJ GRASSLAND    N/A     46  36  66 NE5         N/A
POSSUM KINGDOM   N/A     50  37  62 E5          N/A
GRANBURY         N/A     50  37  62 E2          N/A
COMANCHE         N/A     46  34  61 E2          N/A
MCGREGOR         N/A     52  37  58 NE6         N/A
TEMPLE           N/A     54  39  58 NE7         N/A
LAKE LIMESTONE   N/A     54  43  66 E8          N/A
ATHENS           N/A     52  41  66 E9          N/A
PALESTINE        N/A     46  43  87 NE2         N/A
$$

SUPPLEMENTAL OBSERVATIONS (NWS NORMAN AREA)

CITY           SKY/WX    TMP DP  RH WIND       PRES   REMARKS
GOODLETT         N/A     47  31  53 E10       30.21S
ODELL            N/A     46  33  60 E12       30.26S
CROWELL          N/A     48  33  56 E10       30.22F
KNOX CITY        N/A     53  33  46 E14       30.20F
SEYMOUR          N/A     49  34  55 E12       30.23F
MILLERS CREEK    N/A     50  34  53 E9          N/A
$$

SUPPLEMENTAL OBSERVATIONS (NWS SAN ANGELO AREA)

CITY           SKY/WX    TMP DP  RH WIND       PRES   REMARKS
WEINERT          N/A     48  34  56 E8        30.21F
HASKELL          N/A     48  34  57 E10       30.20F
THROCKMORTON     N/A     46  36  68 E5        30.23F
STAMFORD         N/A     50  33  52 E9        30.21S
CLYDE            N/A     50  34  54 E9        30.21F
HAMBY            N/A     54  34  47 E12         N/A
IVIE RESERVOIR   N/A     52  34  50 E8          N/A
COLORADO BEND    N/A     52  37  58 E5          N/A
$$

SUPPLEMENTAL OBSERVATIONS (NWS SHREVEPORT AREA)

CITY           SKY/WX    TMP DP  RH WIND       PRES   REMARKS
TEXARKANA        N/A     45  36  70 NE2         N/A
LINDEN           N/A     45  37  76 NE1         N/A
CADDO LAKE       N/A     45  36  70 E2          N/A
LUFKIN           N/A     52  41  66 MISG        N/A
N SABINE NF      N/A     48  37  66 MISG        N/A
$$

SUPPLEMENTAL OBSERVATIONS ARE A COLLECTION OF AUTOMATED INSTRUMENTS
THAT ARE MAINTAINED BY A VARIETY OF FEDERAL AND STATE AGENCIES.
CERTAIN ELEMENTS...SUCH AS HUMIDITY VALUES AND SUSTAINED WIND
SPEEDS...MAY BE APPROXIMATED.





USA.gov is the U.S. government's official web portal to all federal, state and local government web resources and services.